www.pogodaiklimat.ru
ПОГОДА в Гаррисберге
Время
и дата
14:56 27.09
15:56 27.09
16:56 27.09
17:56 27.09
18:56 27.09
19:56 27.09
20:56 27.09
21:56 27.09
22:56 27.09
23:56 27.09
00:56 28.09
01:56 28.09
02:56 28.09
03:56 28.09
04:56 28.09
05:56 28.09
06:29 28.09
06:56 28.09
07:56 28.09
08:56 28.09
09:37 28.09
09:56 28.09
10:56 28.09
11:56 28.09
12:56 28.09
13:56 28.09
14:56 28.09
15:56 28.09
16:56 28.09
17:56 28.09
18:56 28.09
19:56 28.09
20:56 28.09
21:56 28.09
22:56 28.09
23:56 28.09
00:56 29.09
01:56 29.09
02:56 29.09
03:56 29.09
04:56 29.09
05:56 29.09
06:56 29.09
07:56 29.09
08:56 29.09
09:56 29.09
10:56 29.09
11:56 29.09
Ветер
(напр.,м/с)
Видим. Явления Облачность Т
(С)
Тd
(С)
f
(%)
Тe
(С)
Тes
(С)
Комфортность P
(гПа)
Po
(гПа)
Тmin
(С)
Tmax
(С)
R
(мм)
R24
(мм)
S
(см)
нст 3 16 км 10/5 1800 m
[Ac]
+18.9 +6.1 43 +20 +21 1012.2 999.9
З 6
{8}
16 км 10/0 2700 m
[Ac]
+18.3 +5.0 41 +18 +19 1012.9 1000.6
З 3 16 км 10/0 2700 m
[Ac]
+15.6 +8.9 64 +15 +16 1013.8 1001.2
З 4 16 км 10/0 3300 m
[Ac]
+15.6 +6.1 53 +15 +15 1014.5 1002.2
З 2 16 км ясно +14.4 +5.6 55 +14 +14 1015.4 1002.9 +13.9 +20.6
З 4 16 км ясно +12.8 +6.1 64 +11 +11 1016.1 1003.6
нст 2 16 км ясно +12.8 +5.6 62 +12 +12 1016.9 1004.6
З 4 16 км ясно +11.7 +5.6 66 +10 +10 1017.1 1004.6
З 3 16 км ясно +11.1 +5.6 69 +9 +9 1017.7 1005.2
З 3 16 км ясно +10.0 +5.6 74 +8 +8 1017.9 1005.6
З 3 16 км ясно +10.6 +5.6 71 +9 +9 1018.0 1005.6 +10.0 +14.4
З 3 16 км ясно +10.0 +5.6 74 +8 +8 1018.1 1005.6
З 2 16 км ясно +10.0 +5.0 71 +9 +9 1018.5 1005.9
З 2 16 км ясно +8.3 +5.0 80 +6 +6 1018.7 1006.2
З 2 16 км ясно +8.3 +5.0 80 +6 +6 1019.1 1006.6
З 3 16 км ясно +8.3 +5.0 80 +6 +6 1020.1 1007.6
З 3 16 км 8/8 870 м +10.0 +6.1 77 +8 +8 1007.9
З 3 16 км 10/10 810 м +10.6 +6.1 74 +9 +9 1020.8 1008.3 +8.3 +10.6
З 3 16 км 10/10 780 м +11.1 +6.7 74 +9 +9 1021.4 1008.9
З 2 16 км 8/8 720 м +13.9 +8.3 69 +13 +14 1021.8 1009.3
СЗ 3 16 км 5/5 750 м +15.6 +8.3 62 +15 +17 1009.6
СЗ 3 16 км ясно +15.6 +8.3 62 +15 +19 1022.1 1009.6
СЗ 3 16 км 2/2 1020 м +17.8 +8.3 54 +18 +23 1022.4 1009.9
С 4 16 км 2/2 1350 м +18.9 +8.3 50 +19 +25 1022.2 1009.6
нст 3 16 км 8/8 1290 м +18.9 +8.3 50 +20 +22 1022.0 1009.6 +10.0 +19.4
нст 2 16 км 8/8 1410 м +20.0 +7.8 45 +22 +24 комфорт 1021.9 1009.3
СЗ 5 16 км 8/0 2100 m
[Ac]
+20.0 +7.8 45 +21 +23 комфорт 1022.1 1009.6
СЗ 6 16 км 10/5 1500 m
[Ac]
+20.0 +8.3 47 +21 +21 комфорт 1022.3 1009.6
С 3 16 км 5/0 2400 m
[Ac]
+20.6 +8.3 45 +22 +24 комфорт 1022.6 1009.9
СЗ 4 16 км 8/8 1440 м +18.9 +8.3 50 +19 +19 1023.6 1010.9
СЗ 3 16 км 10/2 1410 m
[Ac]
+18.3 +8.3 52 +19 +19 1024.1 1011.6 +18.3 +21.1
С 4 16 км 8/2 1950 m
[Ac]
+17.8 +9.4 58 +18 +18 1025.0 1012.3
С 3 16 км ясно +16.7 +9.4 62 +17 +17 1025.6 1013.3
С 2 16 км ясно +15.6 +9.4 67 +16 +16 1026.4 1013.9
С 3 16 км 2/0 2250 m
[Ac]
+15.0 +8.9 67 +14 +14 1026.9 1014.3
СЗ 3 16 км ясно +14.4 +8.9 70 +14 +14 1027.5 1014.9
СЗ 3 16 км 2/2 1050 м +14.4 +7.8 65 +14 +14 1027.6 1015.3 +13.9 +18.9
С 2 16 км ясно +13.9 +7.2 64 +13 +13 1027.8 1015.3
С 2 16 км ясно +13.9 +7.2 64 +13 +13 1027.9 1015.3
С 3 16 км ясно +13.3 +7.2 67 +12 +12 1028.1 1015.6
С 3 16 км ясно +12.8 +7.2 69 +12 +12 1028.4 1015.9
С 3 16 км ясно +12.2 +7.2 71 +11 +11 1028.7 1016.3
нст 2 16 км ясно +12.8 +7.2 69 +12 +12 1029.4 1016.9 +12.2 +14.4
С 4 16 км ясно +13.9 +7.2 64 +13 +13 1029.7 1017.3
С 5
{8}
16 км 2/2 870 м +15.0 +6.7 58 +14 +15 1030.1 1017.6
СВ 4 16 км 8/8 1020 м +16.1 +6.7 54 +15 +16 1030.0 1017.3
С 4 16 км 8/8 1110 м +17.2 +6.7 50 +17 +18 1029.7 1017.3
С 5
{8}
16 км 8/8 1170 м +17.2 +6.7 50 +17 +18 1029.4 1016.9
Местоположение метеостанции Capital City Airport: широта 40.2184 долгота -76.8552 высота над уровнем моря 102 м.
В архиве по умолчанию представлена погода в Гаррисберге за последние 1-2 суток. Обновление информации о фактической погоде в базе происходит ежечасно! Архивные данные за месяц целиком и за предыдущие месяцы Вы можете получить, выбрав интересующий диапазон дат из раскрывающегося списка и нажав кнопку "Ввод!".
Внимание! Архив погоды МЕТАР в базе сайта по станциям, не включенным в климатический монитор, хранится не более 60 дней. Нет смысла пытаться выбрать более раннюю дату.
*Определитесь, кто Вы:
Внимание! Время в таблицах - местное (без учета летнего времени). Для получения всемирного времени необходимо вычесть поправку, которая равна -5 ч.
Смотрите также архив погоды в соседних городах и на ближайших метеорологических станциях:
Партнеры нашего сайта:      
Пояснения к столбцам:
  • Ветер - указаны скорость ветра в м/с - средняя за 10 мин, порывы в срок и между сроками (в фигурных скобках) и направление, откуда дует ветер: С - северный,
  • СВ - северо-восточный, В - восточный, ЮВ - юго-восточный, Ю - южный, ЮЗ - юго-западный, З - западный, СЗ - северо-западный.
  • Видимость - горизонтальная дальность видимости в метрах или километрах. При видимости от 1 до 10 км при отсутствии осадков обычно наблюдается дымка, при ухудшении видимости до 1 км и менее - туман. В сухую погоду видимость может ухудшаться дымом, пылью или мглою.
  • Явления - указаны атмосферные явления, наблюдавшиеся в срок или в последний час перед сроком; фигурными скобками обозначены явления, наблюдавшиеся между сроками (за 1-3 часа до срока); квадратными скобками обозначены град или гололедные отложения с указанием их диаметра в мм.
  • Облачность - указаны через наклонную черту общая и нижняя облачность в баллах и высота нижней границы облаков в метрах; квадратными скобками обозначены формы облаков: Ci - перистые, Cs - перисто-слоистые, Cc - перисто-кучевые, Ac - высококучевые, As - высокослоистые, Sc - слоисто-кучевые, Ns - слоисто-дождевые, Cu - кучевые, Cb - кучево-дождевые. Подробнее классификацию облаков см. в Атласе облаков (PDF).
  • T - Температура воздуха - температура, измеренная на высоте 2 м над землей.
  • Td - Температура точки росы - температура, при понижении до которой содержащийся в воздухе водяной пар достигнет насыщения.
  • f - Относительная влажность воздуха - влажноcть воздуха, измеренная на высоте 2 м над землей.
  • Te - Эффективная температура - температура, которую ощущает одетый по сезону человек в тени. Характеристика душности погоды. При расчете учитывается влияние влажности воздуха и скорости ветра на теплоощущения человека.
  • Tes - Эффективная температура на солнце - температура, которую ощущает человек, с поправкой на солнечный нагрев. Характеристика знойности погоды. Зависит от высоты солнца над горизонтом, облачности и скорости ветра. Ночью, в пасмурную погоду, а также при ветре 12 м/с и более поправка равна нулю.
  • P - Атмосферное давление - приведенное к уровню моря атмосферное давление.
  • Po - Атмосферное давление - измеренное на уровне метеостанции атмосферное давление.
  • Tmin - Минимальная температура - минимум температуры воздуха на высоте 2 м над землей.
  • Tmax - Максимальная температура - максимум температуры воздуха на высоте 2 м над землей.
  • R - Количество осадков - Количество выпавших осадков за период времени, мм. При наведении курсора мыши на число - период времени, за который выпало указанное количество осадков.
  • R24 - Количество осадков - Количество выпавших осадков за 24 часа, мм.
  • S - Снежный покров - Высота снежного покрова, см. При наведении курсора мыши на число - состояние снежного покрова и степень покрытия местности в баллах.